[[{"header":{"parameterUnit":"m.s-1","parameterCategory":2,"la1":30.2991,"la2":30.254,"lo1":-89.0895,"lo2":-89.0444,"dy":0.0017,"dx":0.0017,"nx":28,"ny":28,"refTime":"2024-06-20T09:00:00:Z","depth":"0","parameterNumber":2,"parameterNumberName":"U-component_of_CURRENTS"},"data":[0,0,0,0,0,0,0,0,0,0,0,0,0,0,0,0,0,0,0,0,0,0,0,0,0,0,0,0,0,0,0,0,0,0,0,0,0,0,0,0,0,0,0,0,0,0,0,0,0,0,0,0,0,0,0,0,0,0,-0.1942,-0.1942,0,-0.1944,-0.1945,-0.1945,-0.1958,-0.1958,-0.1958,-0.1958,-0.2069,-0.2071,-0.2074,0,0,0,0,0,0,0,0,0,0,0,0,0,-0.1963,-0.1963,-0.1942,-0.1942,-0.1942,-0.1944,-0.1945,-0.1945,-0.1958,-0.1958,-0.1958,-0.1958,-0.2068,-0.2071,-0.2075,0,0,0,0,0,0,0,0,0,0,0,0,0,-0.1962,-0.1963,-0.1942,-0.1945,-0.1945,-0.1944,-0.1945,-0.1945,-0.1958,-0.1958,-0.1958,-0.1958,-0.2066,-0.2071,-0.2075,-0.2105,0,0,-0.2089,-0.2091,0,0,0,0,0,0,0,0,-0.1962,-0.1962,-0.1945,-0.1945,-0.1945,-0.1947,-0.1992,-0.2003,-0.1958,-0.1957,-0.1958,-0.1958,-0.2036,-0.2043,-0.2047,-0.211,-0.2115,-0.2089,-0.2092,-0.2094,-0.2095,0,0,0,0,0,0,0,-0.1962,-0.1962,-0.1947,-0.1945,-0.1945,-0.1951,-0.1951,-0.1994,-0.2002,-0.1957,-0.1957,-0.1951,-0.2037,-0.2043,-0.205,-0.2117,-0.2089,-0.2093,-0.2096,-0.2098,-0.221,-0.221,0,0,0,0,0,0,-0.1953,-0.1962,-0.1947,-0.1947,-0.1949,-0.195,-0.195,-0.195,-0.1999,-0.2005,-0.1951,-0.1952,-0.2035,-0.2045,-0.2054,-0.21,-0.2094,-0.2098,-0.2101,-0.221,-0.221,-0.221,0,0,0,0,0,0,-0.1954,-0.1952,-0.1947,-0.1951,-0.195,-0.1949,-0.1949,-0.195,-0.1958,-0.1993,-0.2001,-0.1958,-0.2036,-0.2048,-0.2083,-0.2104,-0.21,-0.2104,-0.2209,-0.221,-0.221,-0.2186,0,0,0,0,0,0,-0.1954,-0.1952,-0.1969,-0.195,-0.1949,-0.1943,-0.1949,-0.195,-0.1952,-0.1953,-0.2001,-0.2011,-0.2036,-0.2076,-0.2087,-0.211,-0.2108,-0.2209,-0.221,-0.221,-0.2187,-0.2186,-0.2185,0,0,0,0,0,-0.1955,-0.1974,-0.197,-0.1969,-0.1966,-0.1943,-0.1943,-0.1945,-0.1952,-0.1954,-0.198,-0.201,-0.2088,-0.2079,-0.2093,-0.2118,-0.2209,-0.2209,-0.221,-0.2187,-0.2186,-0.2185,0,0,0,0,0,0,-0.1989,-0.1976,-0.1972,-0.1985,-0.1962,-0.1943,-0.195,-0.1947,-0.1968,-0.1975,-0.2012,-0.2023,-0.2057,-0.209,-0.208,-0.215,-0.2155,-0.2158,-0.2133,-0.2132,-0.2131,-0.2176,-0.2112,0,0,0,0,0,-0.2003,-0.2021,-0.1986,-0.2,-0.1982,-0.1967,-0.1965,-0.1957,-0.1961,-0.197,-0.1996,-0.2034,-0.2071,-0.2101,-0.2129,-0.2176,-0.2191,-0.2201,-0.22,-0.2199,-0.2244,-0.2257,-0.2262,-0.2212,-0.2212,-0.2212,0,0,-0.202,-0.2016,-0.2027,-0.201,-0.1993,-0.1984,-0.1967,-0.1953,-0.1974,-0.1982,-0.2023,-0.2027,-0.2077,-0.2115,-0.2137,-0.2149,-0.2211,-0.22,-0.2199,-0.2245,-0.2258,-0.2263,-0.2268,-0.2213,-0.2213,-0.2212,0,0,-0.2042,-0.205,-0.2056,-0.2036,-0.2006,-0.2004,-0.1997,-0.1969,-0.1984,-0.2005,-0.2017,-0.2035,-0.2089,-0.2126,-0.2157,-0.2177,-0.2193,-0.2178,-0.2231,-0.2241,-0.2246,-0.225,-0.2229,-0.2232,-0.2193,-0.2193,-0.2193,0,-0.2067,-0.2066,-0.2053,-0.2038,-0.2041,-0.2012,-0.2012,-0.2024,-0.2018,-0.205,-0.2019,-0.2089,-0.2106,-0.2188,-0.2184,-0.218,-0.2174,-0.2226,-0.224,-0.2246,-0.2251,-0.2228,-0.2232,-0.2192,-0.2192,-0.2192,-0.2192,0,-0.2071,-0.2075,-0.2069,-0.2063,-0.2068,-0.2056,-0.2056,-0.2075,-0.2084,-0.2097,-0.2145,-0.2144,-0.2198,-0.2188,-0.2197,-0.2252,-0.2228,-0.222,-0.2242,-0.2254,-0.2229,-0.2233,-0.219,-0.2191,-0.2191,-0.2191,0,0,-0.2101,-0.2083,-0.2078,-0.2086,-0.208,-0.2083,-0.2135,-0.2175,-0.2229,-0.2213,-0.2279,-0.23,-0.2286,-0.2321,-0.2313,-0.2322,-0.2312,-0.2292,-0.2292,-0.227,-0.231,-0.2274,-0.2275,-0.2297,-0.2299,-0.23,-0.226,0,-0.2104,-0.2093,-0.2103,-0.2124,-0.2114,-0.2143,-0.2205,-0.225,-0.2282,-0.2334,-0.2347,-0.2384,-0.2345,-0.235,-0.2358,-0.233,-0.2331,-0.2323,-0.2306,-0.2306,-0.2273,-0.2282,-0.2243,-0.2205,-0.2265,-0.2265,-0.2266,0,-0.2071,-0.2091,-0.2088,-0.2161,-0.2166,-0.2194,-0.2301,-0.2349,-0.243,-0.2456,-0.2495,-0.2493,-0.2523,-0.2462,-0.2451,-0.2443,-0.2393,-0.2355,-0.2352,-0.2349,-0.2281,-0.2213,-0.221,-0.2198,-0.2272,-0.2272,-0.2271,0,-0.2036,-0.2079,-0.2091,-0.2096,-0.2166,-0.2216,-0.2283,-0.2374,-0.2437,-0.2519,-0.255,-0.2591,-0.2587,-0.2557,-0.2474,-0.2466,-0.2433,-0.2408,-0.2332,-0.2326,-0.2313,-0.2305,-0.2309,-0.2409,-0.2409,-0.2409,-0.2409,0,-0.1992,-0.2003,-0.2075,-0.2062,-0.2147,-0.2209,-0.2301,-0.2375,-0.248,-0.255,-0.2593,-0.263,-0.2608,-0.2581,-0.2511,-0.2431,-0.246,-0.2363,-0.2331,-0.2296,-0.2288,-0.2294,-0.2305,-0.2408,-0.2408,-0.2408,-0.2408,0,-0.1879,-0.1916,-0.1938,-0.2045,-0.2091,-0.2138,-0.2288,-0.2368,-0.2463,-0.2549,-0.2572,-0.2652,-0.2624,-0.2577,-0.2516,-0.2465,-0.2362,-0.2353,-0.2299,-0.2263,-0.2203,-0.2213,-0.2207,-0.2138,-0.229,-0.2289,-0.2288,0,-0.1813,-0.1788,-0.1888,-0.193,-0.1967,-0.2069,-0.2156,-0.2316,-0.2398,-0.2548,-0.2582,-0.2611,-0.2616,-0.2527,-0.2445,-0.234,-0.2306,-0.2248,-0.2247,-0.2219,-0.2208,-0.2195,-0.2135,-0.219,-0.2189,-0.2188,-0.2187,0,-0.1682,-0.1691,-0.1716,-0.181,-0.1898,-0.2015,-0.2146,-0.222,-0.2405,-0.2481,-0.257,-0.2589,-0.2544,-0.2457,-0.2346,-0.2267,-0.2224,-0.2221,-0.2219,-0.2173,-0.2138,-0.2047,-0.2173,-0.2176,-0.2177,-0.2178,-0.2179,-0.2179,-0.1576,-0.1577,-0.1613,-0.1707,-0.1804,-0.194,-0.2006,-0.2165,-0.2285,-0.2408,-0.2486,-0.251,-0.2472,-0.233,-0.2241,-0.2131,-0.2131,-0.2088,-0.2109,-0.2102,-0.2036,-0.2132,-0.2088,-0.2088,-0.2089,-0.2089,-0.2089,0,-0.1469,-0.1488,-0.1541,-0.1646,-0.1713,-0.182,-0.1985,-0.2035,-0.2135,-0.2282,-0.234,-0.2397,-0.2307,-0.2249,-0.2158,-0.2065,-0.1978,-0.2003,-0.199,-0.1935,-0.2043,-0.204,-0.1953,-0.1953,-0.1953,-0.1953,-0.1953,-0.1953,-0.1413,-0.1409,-0.1459,-0.1537,-0.1611,-0.1702,-0.1778,-0.1856,-0.1939,-0.2036,-0.2136,-0.2235,-0.225,-0.235,-0.2202,-0.207,-0.1976,-0.1927,-0.1892,-0.2003,-0.2013,-0.2022,-0.2021,-0.1931,-0.1931,-0.1729,-0.1728,-0.1727]},{"header":{"parameterUnit":"m.s-1","parameterCategory":2,"la1":30.2991,"la2":30.254,"lo1":-89.0895,"lo2":-89.0444,"dy":0.0017,"dx":0.0017,"nx":28,"ny":28,"refTime":"2024-06-20T09:00:00:Z","depth":"0","parameterNumber":3,"parameterNumberName":"V-component_of_CURRENTS"},"data":[0,0,0,0,0,0,0,0,0,0,0,0,0,0,0,0,0,0,0,0,0,0,0,0,0,0,0,0,0,0,0,0,0,0,0,0,0,0,0,0,0,0,0,0,0,0,0,0,0,0,0,0,0,0,0,0,0,0,-0.0475,-0.0472,0,-0.0283,-0.0281,-0.028,-0.0193,-0.0193,-0.0193,-0.0192,-0.0053,-0.005,-0.0046,0,0,0,0,0,0,0,0,0,0,0,0,0,-0.0696,-0.0693,-0.0475,-0.0472,-0.0469,-0.0284,-0.0281,-0.0279,-0.0193,-0.0193,-0.0192,-0.0192,-0.0054,-0.005,-0.0046,0,0,0,0,0,0,0,0,0,0,0,0,0,-0.0567,-0.0692,-0.0475,-0.04,-0.0391,-0.0284,-0.0281,-0.0279,-0.0193,-0.0193,-0.0192,-0.0192,-0.0055,-0.005,-0.0045,-0.0021,0,0,-0.0029,-0.0027,0,0,0,0,0,0,0,0,-0.0574,-0.056,-0.0414,-0.0405,-0.0394,-0.0257,-0.0307,-0.0193,-0.0193,-0.0274,-0.0192,-0.0192,-0.0123,-0.0112,-0.0084,-0.0015,-0.0009,-0.0029,-0.0026,-0.0024,-0.0022,0,0,0,0,0,0,0,-0.0584,-0.0567,-0.0404,-0.0411,-0.0399,-0.0351,-0.0334,-0.0285,-0.0208,-0.0267,-0.0259,-0.0229,-0.0119,-0.0089,-0.008,-0.0007,-0.0029,-0.0024,-0.0021,-0.0019,0.0145,0.0146,0,0,0,0,0,0,-0.06,-0.0575,-0.041,-0.0398,-0.0479,-0.0347,-0.0328,-0.0306,-0.0207,-0.019,-0.023,-0.0226,-0.0098,-0.0086,-0.0075,0.0022,-0.0024,-0.0019,-0.0016,0.0144,0.0145,0.0147,0,0,0,0,0,0,-0.0606,-0.0588,-0.0418,-0.0478,-0.0452,-0.0344,-0.032,-0.0302,-0.0268,-0.0177,-0.0162,-0.0213,-0.0097,-0.0082,-0.0019,0.0026,-0.0016,-0.0012,0.0142,0.0144,0.0146,0.0176,0,0,0,0,0,0,-0.0613,-0.0591,-0.0595,-0.0479,-0.0449,-0.0352,-0.0319,-0.0299,-0.0248,-0.0242,-0.0158,-0.0145,-0.0096,-0.0028,-0.0014,0.0032,-0.0008,0.0141,0.0143,0.0145,0.0173,0.0179,0.0183,0,0,0,0,0,-0.0622,-0.0619,-0.0597,-0.0577,-0.0454,-0.0351,-0.0332,-0.0257,-0.0248,-0.0229,-0.017,-0.0147,-0.0003,-0.0022,-0.0007,0.0042,0.014,0.0142,0.0145,0.0171,0.0178,0.0183,0,0,0,0,0,0,-0.0701,-0.0606,-0.058,-0.0545,-0.0456,-0.0334,-0.031,-0.0264,-0.0203,-0.0205,-0.0133,-0.0115,-0.004,-0.0014,-0.0037,0.0094,0.0073,0.0079,0.0088,0.0094,0.0099,0.0098,-0.0003,0,0,0,0,0,-0.0726,-0.0707,-0.0594,-0.0564,-0.0527,-0.0427,-0.0382,-0.0328,-0.0248,-0.0221,-0.0151,-0.0086,-0.0017,0.0023,0.0081,0.0147,0.0161,0.0188,0.0193,0.0197,0.0206,0.0272,0.0284,0.0156,0.0156,0.0156,0,0,-0.0745,-0.0691,-0.0678,-0.0582,-0.0514,-0.0436,-0.04,-0.0331,-0.0257,-0.0218,-0.0118,-0.0071,0.0001,0.0088,0.0123,0.0117,0.0234,0.02,0.0203,0.021,0.0276,0.0289,0.03,0.0158,0.0157,0.0157,0,0,-0.0757,-0.0729,-0.071,-0.0636,-0.0536,-0.0463,-0.0446,-0.0324,-0.0269,-0.0176,-0.0122,-0.005,0.0052,0.0132,0.0178,0.0239,0.0252,0.0251,0.0289,0.0353,0.0364,0.0374,0.0378,0.0388,0.0261,0.0261,0.0261,0,-0.0795,-0.0732,-0.0685,-0.0625,-0.0556,-0.0475,-0.0407,-0.0331,-0.0199,-0.0147,-0.0145,0.003,0.0084,0.0212,0.024,0.0255,0.0265,0.0262,0.036,0.037,0.038,0.0382,0.0393,0.0263,0.0262,0.0262,0.0262,0,-0.0761,-0.071,-0.0686,-0.0587,-0.0516,-0.0445,-0.0325,-0.0257,-0.0193,-0.0108,0.0012,0.0093,0.0196,0.0232,0.026,0.0369,0.0341,0.0352,0.0344,0.0395,0.0393,0.0403,0.0265,0.0265,0.0264,0.0264,0,0,-0.0824,-0.0698,-0.0681,-0.0626,-0.0487,-0.042,-0.0309,-0.0175,-0.0108,0.0006,0.0106,0.0238,0.0263,0.0316,0.0365,0.0431,0.0501,0.042,0.0422,0.042,0.0598,0.0571,0.058,0.0528,0.053,0.0533,0.0557,0,-0.0802,-0.0711,-0.0636,-0.0519,-0.0453,-0.0345,-0.0248,-0.0128,-0.0033,0.0076,0.0179,0.0274,0.0303,0.0337,0.0418,0.0482,0.0535,0.049,0.0552,0.0553,0.0523,0.0596,0.0612,0.0636,0.0567,0.0569,0.057,0,-0.0761,-0.0708,-0.0616,-0.0481,-0.0444,-0.0369,-0.0215,-0.0119,0.0039,0.0104,0.0219,0.0287,0.0416,0.0413,0.0563,0.0528,0.0565,0.0606,0.0608,0.0586,0.0549,0.0581,0.0658,0.0822,0.0587,0.0586,0.0584,0,-0.0797,-0.067,-0.0608,-0.0554,-0.0407,-0.035,-0.0269,-0.0118,-0.0045,0.011,0.0156,0.0321,0.0376,0.0486,0.0568,0.0569,0.0698,0.0709,0.0718,0.0713,0.0742,0.0736,0.0989,0.0808,0.0808,0.0808,0.0808,0,-0.077,-0.0711,-0.063,-0.0583,-0.0511,-0.0397,-0.0308,-0.0202,-0.0079,-0.0008,0.0146,0.0213,0.0397,0.0492,0.0574,0.0672,0.0703,0.0739,0.074,0.0747,0.0742,0.0895,0.0952,0.0809,0.0809,0.0809,0.0808,0,-0.0788,-0.0734,-0.0661,-0.0552,-0.0521,-0.0472,-0.0356,-0.0299,-0.0181,-0.0089,-0.005,0.0135,0.0257,0.0411,0.0569,0.0654,0.0846,0.0775,0.0738,0.0737,0.0913,0.0968,0.1183,0.1255,0.0815,0.0815,0.0815,0,-0.079,-0.0754,-0.067,-0.065,-0.0602,-0.0532,-0.0488,-0.0362,-0.031,-0.015,-0.0119,0.0029,0.0123,0.0348,0.0538,0.0691,0.0822,0.0795,0.0827,0.095,0.1014,0.1068,0.1118,0.0859,0.0859,0.0859,0.0859,0,-0.0785,-0.0763,-0.0717,-0.0692,-0.0656,-0.0615,-0.055,-0.0532,-0.0399,-0.0346,-0.0264,-0.0182,0.0071,0.0285,0.0515,0.062,0.0927,0.0801,0.0979,0.112,0.1151,0.1209,0.0768,0.0861,0.0861,0.0861,0.0861,0.0861,-0.079,-0.0778,-0.0738,-0.0712,-0.0704,-0.0704,-0.0697,-0.0658,-0.0627,-0.0577,-0.0447,-0.0356,0.0071,0.0409,0.0568,0.0947,0.0925,0.1063,0.1126,0.1176,0.1254,0.0781,0.0848,0.0848,0.0847,0.0847,0.0847,0,-0.0762,-0.0758,-0.0754,-0.0745,-0.0783,-0.0754,-0.0742,-0.0765,-0.0794,-0.0763,-0.072,-0.033,0.0079,0.0511,0.1066,0.1279,0.1361,0.1391,0.1521,0.156,0.1197,0.121,0.13,0.1299,0.1299,0.1299,0.1299,0.1299,-0.0742,-0.0724,-0.0736,-0.0809,-0.0842,-0.09,-0.0918,-0.0963,-0.0964,-0.0931,-0.0792,-0.0679,0.0059,0.1082,0.1644,0.1685,0.1888,0.1857,0.1959,0.1755,0.1731,0.1708,0.1742,0.1941,0.1942,0.2326,0.233,0.2333]}],[{"header":{"parameterUnit":"m.s-1","parameterCategory":2,"la1":30.2991,"la2":30.254,"lo1":-89.0895,"lo2":-89.0444,"dy":0.0017,"dx":0.0017,"nx":28,"ny":28,"refTime":"2024-06-20T09:00:00:Z","depth":"2","parameterNumber":2,"parameterNumberName":"U-component_of_CURRENTS"},"data":[0,0,0,0,0,0,0,0,0,0,0,0,0,0,0,0,0,0,0,0,0,0,0,0,0,0,0,0,0,0,0,0,0,0,0,0,0,0,0,0,0,0,0,0,0,0,0,0,0,0,0,0,0,0,0,0,0,0,-0.1522,-0.1525,0,-0.1641,-0.1642,-0.1642,-0.1655,-0.1655,-0.1655,-0.1655,-0.173,-0.1732,-0.1734,0,0,0,0,0,0,0,0,0,0,0,0,0,-0.1407,-0.1407,-0.1522,-0.1525,-0.1528,-0.1641,-0.1642,-0.1642,-0.1655,-0.1655,-0.1655,-0.1655,-0.1729,-0.1732,-0.1734,0,0,0,0,0,0,0,0,0,0,0,0,0,-0.1471,-0.1408,-0.1522,-0.1558,-0.1563,-0.1641,-0.1642,-0.1642,-0.1655,-0.1655,-0.1655,-0.1655,-0.1729,-0.1731,-0.1734,-0.175,0,0,-0.1743,-0.1744,0,0,0,0,0,0,0,0,-0.1467,-0.1473,-0.155,-0.1556,-0.1562,-0.1646,-0.163,-0.1681,-0.1654,-0.1605,-0.1655,-0.1655,-0.1707,-0.1711,-0.1714,-0.1754,-0.1757,-0.1743,-0.1745,-0.1746,-0.1747,0,0,0,0,0,0,0,-0.1463,-0.1469,-0.1555,-0.1553,-0.1561,-0.1605,-0.1611,-0.1639,-0.1642,-0.1609,-0.1614,-0.165,-0.1708,-0.1711,-0.1716,-0.1758,-0.1743,-0.1746,-0.1748,-0.1749,-0.1844,-0.1845,0,0,0,0,0,0,-0.1471,-0.1464,-0.1552,-0.156,-0.153,-0.1607,-0.1614,-0.1607,-0.1643,-0.1653,-0.165,-0.165,-0.1706,-0.1713,-0.1719,-0.1778,-0.1746,-0.1749,-0.1751,-0.1843,-0.1844,-0.1845,0,0,0,0,0,0,-0.1467,-0.1475,-0.1547,-0.1529,-0.1543,-0.161,-0.1602,-0.161,-0.1632,-0.1677,-0.1683,-0.1668,-0.1707,-0.1715,-0.1738,-0.1779,-0.175,-0.1753,-0.1842,-0.1844,-0.1845,-0.1871,0,0,0,0,0,0,-0.1462,-0.1472,-0.1473,-0.1528,-0.1545,-0.1609,-0.1604,-0.1613,-0.166,-0.1661,-0.1694,-0.17,-0.1707,-0.1734,-0.1741,-0.1783,-0.1755,-0.1841,-0.1843,-0.1844,-0.1869,-0.1873,-0.1876,0,0,0,0,0,-0.1457,-0.1498,-0.1471,-0.1484,-0.154,-0.1612,-0.1623,-0.1663,-0.1661,-0.1679,-0.1681,-0.17,-0.1749,-0.1736,-0.1745,-0.1788,-0.1841,-0.1842,-0.1844,-0.1868,-0.1872,-0.1876,0,0,0,0,0,0,-0.148,-0.1505,-0.1477,-0.1526,-0.156,-0.162,-0.1671,-0.1673,-0.1689,-0.1693,-0.1701,-0.1707,-0.1744,-0.1758,-0.1743,-0.1819,-0.1803,-0.1806,-0.1818,-0.1822,-0.1826,-0.1852,-0.1758,0,0,0,0,0,-0.1473,-0.1487,-0.1519,-0.1558,-0.1579,-0.1611,-0.1648,-0.1664,-0.1695,-0.1703,-0.1715,-0.1734,-0.1756,-0.178,-0.1796,-0.184,-0.1839,-0.1876,-0.1879,-0.1882,-0.1909,-0.1928,-0.1936,-0.1851,-0.1851,-0.1851,0,0,-0.1505,-0.1516,-0.1531,-0.1561,-0.1592,-0.1629,-0.1631,-0.17,-0.1728,-0.171,-0.1745,-0.1743,-0.1766,-0.1803,-0.1825,-0.1824,-0.1898,-0.1884,-0.1887,-0.1913,-0.193,-0.1939,-0.1946,-0.1852,-0.1852,-0.1852,0,0,-0.1574,-0.157,-0.1594,-0.1615,-0.1661,-0.1679,-0.1697,-0.1738,-0.1756,-0.1779,-0.1773,-0.1791,-0.1823,-0.1848,-0.1865,-0.1903,-0.1906,-0.1914,-0.197,-0.1987,-0.1994,-0.2001,-0.1975,-0.1979,-0.1927,-0.1927,-0.1927,0,-0.1581,-0.1616,-0.1624,-0.1648,-0.1684,-0.1697,-0.1737,-0.1763,-0.1799,-0.1818,-0.1798,-0.1839,-0.1851,-0.1913,-0.1921,-0.1917,-0.1908,-0.195,-0.1992,-0.1999,-0.2005,-0.1977,-0.1981,-0.1929,-0.1929,-0.1929,-0.1928,0,-0.1668,-0.168,-0.1719,-0.1719,-0.1757,-0.181,-0.1837,-0.1863,-0.187,-0.1881,-0.1926,-0.1924,-0.1954,-0.1961,-0.1955,-0.2019,-0.1988,-0.1982,-0.1981,-0.2016,-0.1983,-0.1987,-0.1931,-0.193,-0.193,-0.193,0,0,-0.1693,-0.1748,-0.1755,-0.1754,-0.1795,-0.1832,-0.189,-0.1938,-0.1974,-0.1986,-0.2023,-0.206,-0.2051,-0.2071,-0.2068,-0.2091,-0.2106,-0.2064,-0.2064,-0.2038,-0.2113,-0.2071,-0.2071,-0.2106,-0.2108,-0.2109,-0.2058,0,-0.1733,-0.177,-0.1809,-0.1858,-0.1878,-0.1911,-0.1955,-0.1997,-0.2029,-0.206,-0.2081,-0.2109,-0.2099,-0.2107,-0.2132,-0.2111,-0.2125,-0.2119,-0.2086,-0.2085,-0.2045,-0.2078,-0.1946,-0.189,-0.2062,-0.2063,-0.2063,0,-0.1779,-0.18,-0.1833,-0.1885,-0.1903,-0.1938,-0.2008,-0.2047,-0.2105,-0.2131,-0.2175,-0.218,-0.2222,-0.2193,-0.2209,-0.2203,-0.2173,-0.2151,-0.2149,-0.2115,-0.2053,-0.1892,-0.1891,-0.207,-0.2069,-0.2069,-0.2068,0,-0.1744,-0.1816,-0.1833,-0.1849,-0.1908,-0.1949,-0.1991,-0.2059,-0.2091,-0.2171,-0.2206,-0.2248,-0.2249,-0.2255,-0.222,-0.2218,-0.2207,-0.2191,-0.2125,-0.2118,-0.2006,-0.1989,-0.2209,-0.2209,-0.2209,-0.221,-0.221,0,-0.1733,-0.1755,-0.1818,-0.1818,-0.1854,-0.1922,-0.1981,-0.2027,-0.2102,-0.2128,-0.223,-0.2247,-0.2267,-0.2262,-0.2236,-0.2189,-0.222,-0.2149,-0.2121,-0.2006,-0.199,-0.2157,-0.2151,-0.2208,-0.2208,-0.2208,-0.2209,0,-0.1647,-0.1693,-0.1707,-0.1786,-0.1814,-0.1824,-0.1931,-0.1981,-0.2081,-0.2122,-0.2148,-0.2221,-0.2232,-0.2249,-0.2218,-0.219,-0.216,-0.2131,-0.1976,-0.1933,-0.2049,-0.2046,-0.2063,-0.2062,-0.2061,-0.206,-0.2059,0,-0.1588,-0.1586,-0.1634,-0.1645,-0.1677,-0.1738,-0.1786,-0.1913,-0.1957,-0.2085,-0.2074,-0.2139,-0.2152,-0.2128,-0.2093,-0.2064,-0.2103,-0.1913,-0.1909,-0.2073,-0.2043,-0.2042,-0.204,-0.174,-0.1737,-0.1734,-0.1732,0,-0.1474,-0.1485,-0.1481,-0.1507,-0.1555,-0.1614,-0.1691,-0.1721,-0.1862,-0.1928,-0.1962,-0.1998,-0.2027,-0.1948,-0.1946,-0.189,-0.192,-0.1856,-0.2071,-0.1814,-0.1769,-0.174,-0.1749,-0.1707,-0.171,-0.1711,-0.1713,-0.1714,-0.136,-0.1329,-0.1337,-0.1354,-0.1411,-0.1467,-0.1491,-0.1588,-0.163,-0.1706,-0.1785,-0.1845,-0.1843,-0.1801,-0.1711,-0.166,-0.1782,-0.1709,-0.1717,-0.1728,-0.1717,-0.1675,-0.1588,-0.159,-0.1592,-0.1593,-0.1594,0,-0.1215,-0.1219,-0.1214,-0.1229,-0.1251,-0.1346,-0.1409,-0.1413,-0.1429,-0.1545,-0.1598,-0.1505,-0.1532,-0.1554,-0.147,-0.1441,-0.1399,-0.1357,-0.1325,-0.1352,-0.1375,-0.1344,-0.1118,-0.1116,-0.1114,-0.1113,0,0,-0.1153,-0.1093,-0.1099,-0.1072,-0.1114,-0.1138,-0.1164,-0.1155,-0.1203,-0.1182,-0.1262,-0.1493,-0.156,-0.1368,-0.1295,-0.1215,-0.1256,-0.1138,-0.1527,-0.1519,-0.154,-0.159,-0.1575,0,0,0,0,0]},{"header":{"parameterUnit":"m.s-1","parameterCategory":2,"la1":30.2991,"la2":30.254,"lo1":-89.0895,"lo2":-89.0444,"dy":0.0017,"dx":0.0017,"nx":28,"ny":28,"refTime":"2024-06-20T09:00:00:Z","depth":"2","parameterNumber":3,"parameterNumberName":"V-component_of_CURRENTS"},"data":[0,0,0,0,0,0,0,0,0,0,0,0,0,0,0,0,0,0,0,0,0,0,0,0,0,0,0,0,0,0,0,0,0,0,0,0,0,0,0,0,0,0,0,0,0,0,0,0,0,0,0,0,0,0,0,0,0,0,-0.0128,-0.0128,0,-0.0053,-0.0051,-0.0049,0.0023,0.0022,0.0022,0.0022,0.015,0.0154,0.0158,0,0,0,0,0,0,0,0,0,0,0,0,0,-0.026,-0.0257,-0.0128,-0.0128,-0.0129,-0.0054,-0.0051,-0.0049,0.0023,0.0022,0.0022,0.0021,0.0149,0.0153,0.0158,0,0,0,0,0,0,0,0,0,0,0,0,0,-0.0182,-0.0255,-0.0128,-0.0095,-0.0092,-0.0054,-0.0051,-0.0048,0.0023,0.0022,0.0022,0.0021,0.0147,0.0153,0.0159,0.0206,0,0,0.0176,0.0179,0,0,0,0,0,0,0,0,-0.0186,-0.0175,-0.0099,-0.0097,-0.0094,-0.0038,-0.0052,0.0034,0.0023,-0.0005,0.0022,0.0021,0.0083,0.0094,0.013,0.0212,0.0218,0.0177,0.018,0.0182,0.0184,0,0,0,0,0,0,0,-0.0192,-0.0179,-0.0084,-0.01,-0.0097,-0.0103,-0.009,-0.0034,0.0054,-0.0003,-0.0001,-0.0016,0.0087,0.0124,0.0133,0.0219,0.0176,0.0181,0.0185,0.0187,0.0335,0.0335,0,0,0,0,0,0,-0.0226,-0.0183,-0.0086,-0.0083,-0.0159,-0.0101,-0.0086,-0.0043,0.0052,0.0061,-0.0015,-0.0013,0.0115,0.0126,0.0138,0.0201,0.0182,0.0188,0.0191,0.0334,0.0335,0.0335,0,0,0,0,0,0,-0.0228,-0.0216,-0.009,-0.0147,-0.0133,-0.0099,-0.0051,-0.0042,-0.0017,0.0039,0.0053,-0.0004,0.0115,0.013,0.0184,0.0206,0.019,0.0196,0.0334,0.0334,0.0335,0.0326,0,0,0,0,0,0,-0.0231,-0.0215,-0.0201,-0.0147,-0.0132,-0.0083,-0.0052,-0.0041,-0.0032,-0.0028,0.0053,0.0066,0.0115,0.0175,0.019,0.0214,0.02,0.0333,0.0334,0.0335,0.0326,0.0327,0.0327,0,0,0,0,0,-0.0235,-0.0234,-0.0199,-0.019,-0.0109,-0.0085,-0.0075,-0.0046,-0.0032,-0.0022,0.0038,0.0063,0.0191,0.0181,0.0198,0.0223,0.0333,0.0334,0.0335,0.0326,0.0327,0.0327,0,0,0,0,0,0,-0.0302,-0.0226,-0.0187,-0.0164,-0.0131,-0.0079,-0.0092,-0.0055,0.0004,-0.0003,0.0076,0.0093,0.0147,0.0182,0.0168,0.0266,0.0264,0.0268,0.0251,0.0252,0.0253,0.0254,0.0205,0,0,0,0,0,-0.0306,-0.0264,-0.021,-0.019,-0.0187,-0.0132,-0.0123,-0.0099,-0.0051,-0.0026,0.0043,0.0105,0.0169,0.0204,0.0256,0.0315,0.0341,0.0339,0.034,0.034,0.0352,0.0422,0.0431,0.0339,0.0339,0.0339,0,0,-0.0336,-0.0285,-0.0267,-0.0201,-0.0177,-0.0149,-0.0125,-0.0129,-0.008,-0.0022,0.006,0.0105,0.0181,0.0248,0.0275,0.028,0.037,0.0342,0.0342,0.0353,0.0425,0.0434,0.0442,0.034,0.034,0.0339,0,0,-0.0379,-0.0324,-0.0308,-0.0274,-0.0248,-0.02,-0.0205,-0.0147,-0.0103,-0.003,0.0026,0.0086,0.0186,0.0257,0.0303,0.0337,0.0364,0.0342,0.0363,0.0431,0.044,0.0448,0.0451,0.0459,0.0352,0.0352,0.0352,0,-0.0406,-0.0362,-0.0312,-0.0289,-0.0266,-0.0221,-0.0204,-0.0146,-0.0066,-0.002,-0.0016,0.0149,0.0201,0.0311,0.0325,0.0343,0.036,0.0355,0.0433,0.0442,0.045,0.0452,0.0462,0.0352,0.0352,0.0352,0.0352,0,-0.0439,-0.0395,-0.0401,-0.0315,-0.0284,-0.0279,-0.02,-0.0149,-0.0093,-0.0023,0.0076,0.0159,0.0258,0.0284,0.0323,0.0413,0.0395,0.0418,0.0431,0.0459,0.0458,0.0468,0.0351,0.0351,0.0351,0.0352,0,0,-0.0483,-0.0424,-0.0419,-0.0379,-0.0298,-0.0272,-0.0195,-0.0102,-0.0047,0.0041,0.0129,0.0245,0.0277,0.033,0.0383,0.0451,0.051,0.0458,0.0462,0.046,0.0615,0.0581,0.0588,0.0549,0.0552,0.0554,0.0575,0,-0.0507,-0.0475,-0.0426,-0.0373,-0.0348,-0.0264,-0.0188,-0.01,-0.0013,0.0081,0.0177,0.0266,0.0301,0.0338,0.0416,0.0494,0.0543,0.0499,0.059,0.0592,0.056,0.0602,0.0558,0.0574,0.0585,0.0587,0.0588,0,-0.0532,-0.0502,-0.0471,-0.0375,-0.0359,-0.0313,-0.0186,-0.0114,0.0023,0.0082,0.0186,0.026,0.0382,0.0392,0.0548,0.0517,0.0562,0.0613,0.0615,0.0601,0.0579,0.0558,0.0592,0.0605,0.0604,0.0603,0.0602,0,-0.0574,-0.0513,-0.0484,-0.0455,-0.0356,-0.0315,-0.0251,-0.0121,-0.0061,0.0079,0.0128,0.0278,0.0341,0.0456,0.0554,0.056,0.0693,0.0715,0.0719,0.0714,0.0706,0.0696,0.0813,0.0813,0.0813,0.0812,0.0812,0,-0.0582,-0.0562,-0.0508,-0.0492,-0.0446,-0.0363,-0.0295,-0.0206,-0.0101,-0.0043,0.0112,0.0169,0.0363,0.0462,0.0552,0.0656,0.0691,0.0731,0.0739,0.0694,0.0684,0.0743,0.0735,0.0813,0.0813,0.0813,0.0813,0,-0.0614,-0.0587,-0.0553,-0.0484,-0.0464,-0.043,-0.0343,-0.0298,-0.019,-0.0111,-0.0072,0.0095,0.0221,0.0384,0.0549,0.0635,0.0747,0.076,0.066,0.0656,0.0716,0.0707,0.0797,0.0796,0.0796,0.0795,0.0795,0,-0.0615,-0.0612,-0.0565,-0.0556,-0.0527,-0.048,-0.0452,-0.0353,-0.0312,-0.0174,-0.0151,-0.0006,0.0073,0.0301,0.0489,0.065,0.0682,0.0703,0.0734,0.0727,0.0725,0.0717,0.0708,0.0695,0.0694,0.0693,0.0692,0,-0.0624,-0.0622,-0.0598,-0.0594,-0.0576,-0.0553,-0.0512,-0.05,-0.0395,-0.0356,-0.0302,-0.0236,0.0006,0.0185,0.0423,0.0519,0.069,0.0689,0.0745,0.0702,0.0633,0.063,0.0625,0.0684,0.0685,0.0685,0.0686,0.0686,-0.0623,-0.0623,-0.0613,-0.0604,-0.0615,-0.0627,-0.0626,-0.0608,-0.0599,-0.0558,-0.0478,-0.0402,-0.013,0.0159,0.0374,0.0599,0.0609,0.0681,0.0684,0.0688,0.0669,0.0604,0.0641,0.0642,0.0642,0.0642,0.0643,0,-0.058,-0.0612,-0.0621,-0.0633,-0.0679,-0.0667,-0.0668,-0.0684,-0.0726,-0.072,-0.0703,-0.0473,-0.0238,0.0053,0.0395,0.0609,0.0628,0.0645,0.0645,0.065,0.0655,0.0636,0.0599,0.06,0.0601,0.0601,0,0,-0.0574,-0.0578,-0.0599,-0.0679,-0.072,-0.0781,-0.0797,-0.083,-0.0836,-0.0874,-0.0844,-0.0734,-0.0327,-0.0092,0.0211,0.0409,0.046,0.0419,0.0426,0.0391,0.0393,0.0646,0.0617,0,0,0,0,0]}],[{"header":{"parameterUnit":"m.s-1","parameterCategory":2,"la1":30.2991,"la2":30.254,"lo1":-89.0895,"lo2":-89.0444,"dy":0.0017,"dx":0.0017,"nx":28,"ny":28,"refTime":"2024-06-20T09:00:00:Z","depth":"4","parameterNumber":2,"parameterNumberName":"U-component_of_CURRENTS"},"data":[0,0,0,0,0,0,0,0,0,0,0,0,0,0,0,0,0,0,0,0,0,0,0,0,0,0,0,0,0,0,0,0,0,0,0,0,0,0,0,0,0,0,0,0,0,0,0,0,0,0,0,0,0,0,0,0,0,0,-0.0429,-0.043,0,-0.0452,-0.0451,-0.0451,-0.0438,-0.0438,-0.0438,-0.0438,-0.0397,-0.0396,-0.0395,0,0,0,0,0,0,0,0,0,0,0,0,0,-0.0408,-0.0408,-0.0429,-0.043,-0.0431,-0.0452,-0.0451,-0.0451,-0.0438,-0.0438,-0.0438,-0.0438,-0.0398,-0.0396,-0.0395,0,0,0,0,0,0,0,0,0,0,0,0,0,-0.0417,-0.0408,-0.0429,-0.0432,-0.0432,-0.0452,-0.0451,-0.0451,-0.0438,-0.0438,-0.0438,-0.0438,-0.0398,-0.0397,-0.0395,-0.0388,0,0,-0.039,-0.039,0,0,0,0,0,0,0,0,-0.0416,-0.0416,-0.043,-0.0432,-0.0433,-0.0447,-0.0429,-0.0429,-0.0438,-0.043,-0.0438,-0.0438,-0.0412,-0.041,-0.0406,-0.0386,-0.0384,-0.039,-0.0389,-0.0389,-0.0388,0,0,0,0,0,0,0,-0.0415,-0.0416,-0.0432,-0.0431,-0.0433,-0.0443,-0.0443,-0.0429,-0.0415,-0.043,-0.0431,-0.0443,-0.0412,-0.0408,-0.0405,-0.0383,-0.039,-0.0389,-0.0388,-0.0387,-0.0454,-0.0457,0,0,0,0,0,0,-0.0423,-0.0415,-0.0431,-0.0433,-0.0431,-0.0444,-0.0444,-0.0438,-0.0417,-0.0416,-0.0443,-0.0443,-0.041,-0.0407,-0.0404,-0.0505,-0.0389,-0.0387,-0.0386,-0.0451,-0.0455,-0.0458,0,0,0,0,0,0,-0.0422,-0.0424,-0.0431,-0.0431,-0.0433,-0.0445,-0.0438,-0.0438,-0.0442,-0.0429,-0.0425,-0.0449,-0.041,-0.0406,-0.0412,-0.0499,-0.0386,-0.0385,-0.0448,-0.0452,-0.0456,-0.0637,0,0,0,0,0,0,-0.0421,-0.0423,-0.0428,-0.0431,-0.0434,-0.0447,-0.0439,-0.0439,-0.0453,-0.0452,-0.0432,-0.0428,-0.041,-0.0415,-0.0411,-0.0495,-0.0384,-0.0445,-0.045,-0.0455,-0.0627,-0.0646,-0.0663,0,0,0,0,0,-0.042,-0.0425,-0.0428,-0.0431,-0.0437,-0.0448,-0.045,-0.0454,-0.0453,-0.0456,-0.0455,-0.0429,-0.0445,-0.0415,-0.041,-0.0496,-0.0442,-0.0449,-0.0454,-0.0619,-0.0642,-0.0662,0,0,0,0,0,0,-0.0415,-0.0425,-0.0428,-0.0434,-0.0446,-0.0449,-0.0457,-0.0461,-0.0462,-0.0464,-0.0443,-0.044,-0.0491,-0.0452,-0.042,-0.0529,-0.0447,-0.0453,-0.0575,-0.0596,-0.0613,-0.0605,-0.0383,0,0,0,0,0,-0.0419,-0.0426,-0.0436,-0.0444,-0.0446,-0.0453,-0.0462,-0.0467,-0.047,-0.047,-0.0471,-0.0478,-0.0511,-0.0517,-0.0524,-0.056,-0.0507,-0.0617,-0.0635,-0.065,-0.064,-0.06,-0.0613,-0.0477,-0.0477,-0.0477,0,0,-0.0419,-0.043,-0.0433,-0.0445,-0.0448,-0.0462,-0.0455,-0.0471,-0.0509,-0.0465,-0.0514,-0.0533,-0.0533,-0.0599,-0.0619,-0.0577,-0.0676,-0.0658,-0.0671,-0.0652,-0.0608,-0.0621,-0.0632,-0.0482,-0.0481,-0.048,0,0,-0.0423,-0.0429,-0.0434,-0.0447,-0.0468,-0.0478,-0.0485,-0.0504,-0.0536,-0.0585,-0.0591,-0.0649,-0.0672,-0.071,-0.0729,-0.0835,-0.0772,-0.0856,-0.0939,-0.0904,-0.0914,-0.0922,-0.0933,-0.094,-0.0864,-0.0864,-0.0865,0,-0.0425,-0.0431,-0.044,-0.0452,-0.0472,-0.0485,-0.0502,-0.054,-0.0572,-0.0605,-0.0618,-0.0712,-0.0732,-0.0819,-0.0894,-0.088,-0.0849,-0.0866,-0.0926,-0.0932,-0.0937,-0.0946,-0.0951,-0.0874,-0.0873,-0.0872,-0.0871,0,-0.0433,-0.0442,-0.0446,-0.0468,-0.0493,-0.0508,-0.0561,-0.0592,-0.0645,-0.0695,-0.08,-0.0852,-0.0898,-0.0958,-0.0975,-0.1054,-0.1022,-0.0955,-0.0871,-0.0961,-0.0966,-0.0969,-0.0887,-0.0884,-0.0881,-0.0879,0,0,-0.0412,-0.0444,-0.0445,-0.0454,-0.0505,-0.0515,-0.0586,-0.0647,-0.0665,-0.0787,-0.0838,-0.1006,-0.1042,-0.1065,-0.1109,-0.1125,-0.1202,-0.108,-0.1074,-0.1091,-0.1153,-0.1134,-0.1134,-0.1134,-0.1134,-0.1134,-0.1164,0,-0.041,-0.0422,-0.0461,-0.0486,-0.0488,-0.0537,-0.0597,-0.0666,-0.0719,-0.0769,-0.0906,-0.0972,-0.1084,-0.1113,-0.1172,-0.1168,-0.1206,-0.1201,-0.1061,-0.1058,-0.1027,-0.1135,-0.1135,-0.1166,-0.1166,-0.1166,-0.1166,0,-0.04,-0.0409,-0.0427,-0.0473,-0.0482,-0.0526,-0.0571,-0.0631,-0.0719,-0.0756,-0.0866,-0.0933,-0.1078,-0.1096,-0.1201,-0.1189,-0.1203,-0.1202,-0.12,-0.1106,-0.1041,-0.1038,-0.117,-0.1169,-0.1169,-0.1169,-0.1169,0,-0.0352,-0.0386,-0.0398,-0.0414,-0.0471,-0.0515,-0.0572,-0.0641,-0.0652,-0.074,-0.0728,-0.0902,-0.0972,-0.1027,-0.1158,-0.1146,-0.1207,-0.1156,-0.1161,-0.116,-0.1083,-0.1073,-0.1178,-0.1178,-0.1178,-0.1178,-0.1178,0,-0.033,-0.0334,-0.0379,-0.0385,-0.0428,-0.0491,-0.0501,-0.0578,-0.0596,-0.0612,-0.0739,-0.0764,-0.0948,-0.1036,-0.1118,-0.1196,-0.1187,-0.1197,-0.1164,-0.117,-0.1169,-0.1089,-0.1078,-0.1179,-0.1179,-0.1179,-0.1178,0,-0.0295,-0.0301,-0.0335,-0.0398,-0.0408,-0.0468,-0.047,-0.0419,-0.0485,-0.0489,-0.0521,-0.0663,-0.0816,-0.0986,-0.1083,-0.1133,-0.1182,-0.1195,-0.1253,-0.1218,-0.1168,-0.1166,-0.1176,-0.1175,-0.1175,-0.1175,-0.1174,0,-0.0279,-0.0272,-0.035,-0.0351,-0.0396,-0.0412,-0.0361,-0.0387,-0.033,-0.0431,-0.0429,-0.0597,-0.0723,-0.0886,-0.104,-0.1197,-0.1202,-0.1205,-0.1166,-0.12,-0.1166,-0.1165,-0.1164,-0.1174,-0.1173,-0.1173,-0.1173,0,-0.0247,-0.0286,-0.031,-0.0327,-0.0303,-0.0273,-0.0254,-0.0165,-0.0194,-0.0223,-0.0359,-0.0508,-0.0682,-0.0879,-0.1035,-0.1125,-0.1186,-0.12,-0.12,-0.1164,-0.1197,-0.1164,-0.1163,-0.1172,-0.1172,-0.1172,-0.1172,0,-0.0229,-0.0253,-0.026,-0.0281,-0.0238,-0.019,-0.0174,-0.0122,-0.0089,-0.0201,-0.025,-0.049,-0.0661,-0.0838,-0.096,-0.109,-0.1079,-0.104,-0.1048,-0.1051,-0.1011,-0.1035,-0.0946,0,0,0,0,0,-0.021,-0.0185,-0.0177,-0.0179,-0.014,-0.0151,-0.0087,-0.004,-0.0012,-0.01,-0.0191,-0.038,-0.0633,-0.0733,-0.086,-0.0897,-0.1063,-0.1032,-0.1012,-0.1164,-0.1165,-0.1138,0,0,0,0,0,0,-0.0171,-0.017,-0.0148,-0.0064,-0.0044,0.0008,0.0031,0.0016,-0.003,-0.0082,-0.0229,-0.0348,-0.0601,-0.0602,-0.086,-0.0897,-0.0874,-0.1175,-0.1174,-0.1163,-0.1164,-0.1165,-0.1138,0,0,0,0,0]},{"header":{"parameterUnit":"m.s-1","parameterCategory":2,"la1":30.2991,"la2":30.254,"lo1":-89.0895,"lo2":-89.0444,"dy":0.0017,"dx":0.0017,"nx":28,"ny":28,"refTime":"2024-06-20T09:00:00:Z","depth":"4","parameterNumber":3,"parameterNumberName":"V-component_of_CURRENTS"},"data":[0,0,0,0,0,0,0,0,0,0,0,0,0,0,0,0,0,0,0,0,0,0,0,0,0,0,0,0,0,0,0,0,0,0,0,0,0,0,0,0,0,0,0,0,0,0,0,0,0,0,0,0,0,0,0,0,0,0,0.038,0.038,0,0.0423,0.0424,0.0424,0.0469,0.047,0.047,0.0471,0.0541,0.0542,0.0544,0,0,0,0,0,0,0,0,0,0,0,0,0,0.0364,0.0364,0.038,0.038,0.0381,0.0423,0.0424,0.0424,0.0469,0.047,0.047,0.0471,0.054,0.0542,0.0544,0,0,0,0,0,0,0,0,0,0,0,0,0,0.0386,0.0364,0.038,0.0408,0.0411,0.0423,0.0424,0.0424,0.0469,0.047,0.0471,0.0471,0.054,0.0542,0.0544,0.0538,0,0,0.055,0.0551,0,0,0,0,0,0,0,0,0.0384,0.0386,0.0403,0.0406,0.0409,0.0441,0.0444,0.0464,0.0469,0.0447,0.0471,0.0472,0.0509,0.0514,0.052,0.0542,0.0545,0.055,0.0551,0.0552,0.0553,0,0,0,0,0,0,0,0.0383,0.0385,0.0397,0.0404,0.0407,0.0428,0.0432,0.0448,0.0473,0.0449,0.0452,0.0456,0.0511,0.0518,0.0522,0.0546,0.055,0.0552,0.0553,0.0554,0.059,0.059,0,0,0,0,0,0,0.0374,0.0383,0.0396,0.0399,0.0398,0.0428,0.0432,0.043,0.0473,0.048,0.0456,0.0458,0.0514,0.052,0.0525,0.0498,0.0552,0.0554,0.0555,0.059,0.059,0.059,0,0,0,0,0,0,0.0374,0.0375,0.0394,0.0392,0.0396,0.0427,0.0425,0.0431,0.0443,0.0477,0.0485,0.0463,0.0515,0.0522,0.054,0.0502,0.0555,0.0557,0.0591,0.059,0.059,0.046,0,0,0,0,0,0,0.0373,0.0374,0.0369,0.0391,0.0396,0.0394,0.0424,0.0431,0.0444,0.0448,0.0486,0.0493,0.0516,0.0537,0.0542,0.0506,0.0558,0.0591,0.059,0.059,0.0464,0.0455,0.0447,0,0,0,0,0,0.0372,0.0359,0.0368,0.037,0.0388,0.0393,0.0397,0.0423,0.0443,0.0439,0.047,0.0492,0.0538,0.0538,0.0544,0.0508,0.0591,0.0591,0.059,0.0468,0.0457,0.0447,0,0,0,0,0,0,0.0346,0.0363,0.0374,0.0366,0.0376,0.04,0.04,0.042,0.0441,0.0451,0.0487,0.0495,0.0502,0.0531,0.053,0.0523,0.0569,0.057,0.0474,0.0464,0.0455,0.0435,0.056,0,0,0,0,0,0.0338,0.0335,0.0352,0.0345,0.0348,0.0375,0.0381,0.0399,0.0421,0.0432,0.0464,0.0494,0.0503,0.0505,0.0534,0.0521,0.0545,0.0506,0.0497,0.0489,0.0481,0.0456,0.0442,0.0588,0.0588,0.0588,0,0,0.0328,0.0335,0.0335,0.034,0.0352,0.0332,0.0381,0.0387,0.0357,0.0436,0.0422,0.0474,0.05,0.049,0.0493,0.0505,0.047,0.0489,0.0481,0.0477,0.0453,0.0439,0.0425,0.0588,0.0588,0.0588,0,0,0.0301,0.031,0.0298,0.0294,0.0306,0.031,0.031,0.0339,0.0336,0.0337,0.0381,0.0403,0.0434,0.043,0.043,0.0391,0.0436,0.0417,0.0334,0.0309,0.0295,0.0284,0.0324,0.0316,0.0396,0.0396,0.0395,0,0.0287,0.0271,0.0294,0.0272,0.0249,0.0293,0.0253,0.025,0.0282,0.0262,0.032,0.0362,0.039,0.0342,0.0337,0.0363,0.0391,0.0361,0.0292,0.0281,0.0271,0.0315,0.0308,0.0389,0.039,0.0391,0.0391,0,0.0245,0.0229,0.0218,0.0193,0.0166,0.0151,0.0133,0.0118,0.0137,0.0146,0.0144,0.021,0.0231,0.0242,0.0275,0.022,0.028,0.029,0.0305,0.0247,0.0299,0.0295,0.038,0.0383,0.0384,0.0386,0,0,0.0232,0.0196,0.0195,0.0152,0.0122,0.0089,0.0015,-0.004,-0.0088,-0.0029,-0.0071,-0.0035,0.0044,0.0054,0.0114,0.0097,0.0065,0.0164,0.0166,0.0182,0.0062,0.0121,0.0123,0.0059,0.0057,0.0056,0.0134,0,0.0196,0.0142,0.0114,0.0025,-0.0012,-0.0051,-0.0128,-0.0179,-0.0188,-0.0207,-0.0156,-0.0137,-0.0046,-0.0009,-0.0018,0.005,0.0045,0.0046,0.0135,0.0139,0.0177,0.0115,0.0049,0.0131,0.0131,0.013,0.013,0,0.0171,0.013,0.0056,-0.0069,-0.0096,-0.0165,-0.0298,-0.0352,-0.0395,-0.0387,-0.036,-0.0284,-0.0264,-0.0171,-0.0113,-0.0109,-0.0033,0.0022,0.0025,0.0118,0.0188,0.0199,0.0123,0.0123,0.0124,0.0124,0.0125,0,0.0175,0.0075,0.0009,-0.0025,-0.0143,-0.0233,-0.0315,-0.0401,-0.0451,-0.0477,-0.047,-0.0432,-0.0372,-0.0311,-0.0145,-0.0145,-0.0058,-0.0057,0.0069,0.0078,0.0059,0.0071,-0.004,-0.004,-0.0041,-0.0041,-0.0041,0,0.0157,0.0101,0.0,-0.0031,-0.0178,-0.0256,-0.0387,-0.0468,-0.0519,-0.0559,-0.0528,-0.0507,-0.0405,-0.0316,-0.0197,-0.005,-0.0099,0.0048,0.008,0.0012,0.0017,0.0059,0.0069,-0.0038,-0.0038,-0.0039,-0.004,0,0.018,0.0146,0.0039,-0.0107,-0.0164,-0.0276,-0.0436,-0.0495,-0.0553,-0.0596,-0.059,-0.0561,-0.0461,-0.0324,-0.0202,-0.0101,0.0018,0.0088,0.0057,0.0089,0.0184,0.0187,0.0181,0.0184,0.0185,0.0187,0.0188,0,0.0186,0.0161,-0.0006,-0.0083,-0.0161,-0.0307,-0.0379,-0.049,-0.0545,-0.0609,-0.0614,-0.0546,-0.0494,-0.028,-0.0149,0.0058,0.01,0.0167,0.0117,0.0164,0.0196,0.0196,0.0197,0.0191,0.0192,0.0192,0.0193,0,0.0179,0.014,0.0045,-0.0096,-0.0208,-0.0333,-0.046,-0.0476,-0.0563,-0.0616,-0.0625,-0.0533,-0.0418,-0.0271,-0.0085,0.0062,0.0106,0.0187,0.0182,0.0135,0.0176,0.0206,0.0204,0.02,0.0199,0.0198,0.0198,0,0.0164,0.0084,-0.0008,-0.0163,-0.027,-0.0344,-0.0406,-0.0475,-0.0532,-0.0597,-0.0586,-0.0497,-0.0468,-0.0263,-0.0095,0.0055,0.0066,0.01,0.01,0.0094,0.0048,0.0086,0.0091,0,0,0,0,0,0.0133,0.0051,-0.0066,-0.0231,-0.0314,-0.038,-0.0455,-0.0483,-0.0534,-0.0539,-0.0576,-0.0473,-0.0286,-0.0223,-0.0066,-0.0036,0.0124,0.0154,0.0171,0.0236,0.0228,0.0194,0,0,0,0,0,0,0.0105,0.0011,-0.0071,-0.0229,-0.032,-0.0415,-0.0441,-0.0463,-0.0487,-0.0522,-0.0428,-0.045,-0.0261,-0.0387,-0.0077,-0.0037,-0.0003,0.0215,0.0218,0.024,0.0233,0.0227,0.0189,0,0,0,0,0]}]]